User: anonymous   Login
Location: Karaa?a�
(36.7158°N, 30.4165°E)
Time: 18:49:33
(UTC+00:00)
Language:

Cosmos 1703 - Orbit

View from above orbital plane
View from above orbital plane
View from above satellite
View from above satellite

Ground track
Ground track

The orbit data is extracted from the following two-line orbital elements,

1 16262U 85108A   20184.85957476 -.00000250 +00000-0 -16676-4 0  9994
2 16262 082.4785 237.2279 0012755 056.4233 303.8213 15.11303926886494
Epoch (UTC): 02 July 2020 20:37:47
Eccentricity: 0.0012755
inclination: 82.4785°
perigee height: 523 km
apogee height: 541 km
right ascension of ascending node: 237.2279°
argument of perigee: 56.4233°
revolutions per day: 15.11303926
mean anomaly at epoch: 303.8213°
orbit number at epoch: 88649

The dashed part of the orbit path shows where the satellite is in the earth's shadow,  

DLR